Torna al catalogo

NAVSTAR 14

USA 38

AttivoNavigazioneMEO
NORAD 20061·PAYLOAD·🇺🇸 United States

Lanciato Jun 10, 1989 da Cape Canaveral Space Force Station

Loading…

Prossimi Passaggi (prossime 24 ore)

TLE

AggiornatoSource: Space-Track

Epoca: Sep 14, 2026, 07:35 UTC

1 20061U 89044A   26257.31641782  .00000011  00000-0  00000-0 0  9990
2 20061  53.2666 236.4606 0028394 214.2611 144.4878  1.88858301263468

Traccia NAVSTAR 14 in tempo reale con AllMySat

Download on the App Store